Boulder Muni, Boulder, CO, CO

1:03 PM MDT on October 23, 2019 (GMT -0600)
Boulder Muni, Boulder, CO

Weather History for KBDU - August, 2019

Change the Weather History Date:

Thursday, August 22, 2019

  Actual Average Record
Temperature  
Mean Temperature 74 °F -  
Max Temperature 88 °F - 90 °F (2016)
Min Temperature 59 °F - 55 °F (2017)
Degree Days  
Heating Degree Days 0    
Month to date heating degree days 0  
Cooling Degree Days 9    
Month to date cooling degree days 222  
Growing Degree Days 23 (Base 50)    
Moisture  
Dew Point 48 °F    
Average Humidity 46    
Maximum Humidity 75    
Minimum Humidity 17    
Precipitation  
Precipitation 0.00 in - 0.02 in (2014)
Snow  
Snow 0.00 in - - ()
Snow Depth 0.00 in    
Sea Level Pressure  
Sea Level Pressure 30.03 in    
Wind  
Wind Speed 3 mph (NNW)    
Max Wind Speed 9 mph    
Max Gust Speed 31 mph    
Visibility 10 miles    
Events Thunderstorm    
T = Trace of Precipitation, MM = Missing Value Source: NWS Daily Summary

Daily Weather History Graph

Daily Weather History Graph

Search for Another Location

Airport or City:

Astronomy

Aug. 22, 2019 Rise Set
Actual Time 6:19 AM MDT 7:47 PM MDT
Civil Twilight 5:50 AM MDT 8:16 PM MDT
Nautical Twilight 5:16 AM MDT 8:50 PM MDT
Astronomical Twilight 4:39 AM MDT 9:26 PM MDT
Moon 11:39 PM MDT (8/22) 12:57 PM MDT (8/22)
Length of Visible Light 14h 25m
Length of Day
13h 28m
Waning Gibbous, 59% of the Moon is Illuminated
Aug 22
Waning Gibbous
Aug 23
Last Quarter
Aug 30
New
Sep 5
First Quarter
Sep 13
Full

Hourly Weather History & Observations

Time (MDT) Temp. Dew Point Humidity Pressure Visibility Wind Dir Wind Speed Gust Speed Precip Events Conditions
12:12 AM 62.6 °F 50.0 °F 63% 30.12 in 10.0 mi NW 3.5 mph - N/A   Clear
12:30 AM 62.6 °F 50.0 °F 63% 30.14 in 10.0 mi Calm Calm - N/A   Clear
12:48 AM 64.4 °F 50.0 °F 59% 30.15 in 10.0 mi Calm Calm - N/A   Clear
1:12 AM 64.4 °F 50.0 °F 59% 30.15 in 10.0 mi SW 3.5 mph - N/A   Clear
1:30 AM 62.6 °F 50.0 °F 63% 30.14 in 10.0 mi Calm Calm - N/A   Clear
1:48 AM 62.6 °F 51.8 °F 68% 30.15 in 10.0 mi West 5.8 mph - N/A   Clear
2:12 AM 62.6 °F 51.8 °F 68% 30.15 in 10.0 mi NW 3.5 mph - N/A   Scattered Clouds
2:30 AM 62.6 °F 53.6 °F 72% 30.14 in 10.0 mi Calm Calm - N/A   Scattered Clouds
2:48 AM 62.6 °F 51.8 °F 68% 30.14 in 10.0 mi WSW 3.5 mph - N/A   Mostly Cloudy
3:12 AM 62.6 °F 50.0 °F 63% 30.12 in 10.0 mi Calm Calm - N/A   Scattered Clouds
3:30 AM 62.6 °F 50.0 °F 63% 30.11 in 10.0 mi Calm Calm - N/A   Scattered Clouds
3:48 AM 62.6 °F 50.0 °F 63% 30.10 in 10.0 mi Calm Calm - N/A   Clear
4:12 AM 62.6 °F 50.0 °F 63% 30.09 in 10.0 mi Calm Calm - N/A   Clear
4:30 AM 60.8 °F 50.0 °F 68% 30.09 in 10.0 mi Calm Calm - N/A   Clear
4:48 AM 60.8 °F 51.8 °F 72% 30.09 in 10.0 mi Calm Calm - N/A   Clear
5:30 AM 62.6 °F 46.4 °F 55% 30.09 in 10.0 mi WSW 4.6 mph - N/A   Scattered Clouds
5:48 AM 60.8 °F 48.2 °F 63% 30.09 in 10.0 mi SSW 5.8 mph - N/A   Scattered Clouds
6:12 AM 59.0 °F 50.0 °F 72% 30.08 in 10.0 mi South 3.5 mph - N/A   Clear
6:30 AM 59.0 °F 50.0 °F 72% 30.08 in 10.0 mi Calm Calm - N/A   Clear
6:48 AM 59.0 °F 50.0 °F 72% 30.08 in 10.0 mi South 3.5 mph - N/A   Clear
7:12 AM 60.8 °F 50.0 °F 68% 30.07 in 10.0 mi SE 3.5 mph - N/A   Clear
7:30 AM 60.8 °F 48.2 °F 63% 30.07 in 10.0 mi Calm Calm - N/A   Clear
7:48 AM 59.0 °F 51.8 °F 77% 30.07 in 10.0 mi Calm Calm - N/A   Clear
8:12 AM 62.6 °F 50.0 °F 63% 30.07 in 10.0 mi Calm Calm - N/A   Clear
8:30 AM 62.6 °F 51.8 °F 68% 30.06 in 10.0 mi Calm Calm - N/A   Clear
8:48 AM 64.4 °F 51.8 °F 64% 30.06 in 10.0 mi SSW 3.5 mph - N/A   Clear
9:12 AM 64.4 °F 51.8 °F 64% 30.04 in 10.0 mi West 3.5 mph - N/A   Clear
9:30 AM 68.0 °F 51.8 °F 56% 30.04 in 10.0 mi Calm Calm - N/A   Clear
9:48 AM 69.8 °F 51.8 °F 53% 30.04 in 10.0 mi SE 3.5 mph - N/A   Clear
10:12 AM 71.6 °F 53.6 °F 53% 30.03 in 10.0 mi East 3.5 mph - N/A   Clear
10:30 AM 71.6 °F 55.4 °F 57% 30.03 in 10.0 mi ENE 6.9 mph - N/A   Clear
10:48 AM 71.6 °F 55.4 °F 57% 30.03 in 10.0 mi NE 4.6 mph - N/A   Clear
11:12 AM 73.4 °F 55.4 °F 53% 30.01 in 10.0 mi North 5.8 mph - N/A   Clear
11:30 AM 77.0 °F 53.6 °F 44% 30.01 in 10.0 mi NE 4.6 mph - N/A   Clear
11:48 AM 77.0 °F 51.8 °F 41% 30.00 in 10.0 mi East 5.8 mph - N/A   Clear
12:12 PM 78.8 °F 51.8 °F 39% 29.99 in 7.0 mi NE 4.6 mph - N/A   Clear
12:30 PM 78.8 °F 50.0 °F 36% 29.98 in 10.0 mi NNE 3.5 mph - N/A   Clear
12:48 PM 80.6 °F 50.0 °F 34% 29.97 in 10.0 mi Calm Calm - N/A   Clear
1:12 PM 82.4 °F 48.2 °F 30% 29.96 in 7.0 mi Calm Calm - N/A   Clear
1:30 PM 82.4 °F 46.4 °F 28% 29.96 in 10.0 mi NE 3.5 mph - N/A   Clear
1:48 PM 82.4 °F 44.6 °F 26% 29.95 in 10.0 mi SE 3.5 mph - N/A   Clear
2:12 PM 82.4 °F 46.4 °F 28% 29.95 in 10.0 mi NNW 3.5 mph - N/A   Clear
2:30 PM 84.2 °F 46.4 °F 27% 29.96 in 10.0 mi NNW 4.6 mph - N/A   Clear
2:48 PM 84.2 °F 48.2 °F 29% 29.96 in 10.0 mi NNW 9.2 mph - N/A   Clear
3:12 PM 82.4 °F 51.8 °F 35% 29.95 in 10.0 mi North 5.8 mph - N/A   Clear
3:30 PM 86.0 °F 50.0 °F 29% 29.94 in 10.0 mi NNE 10.4 mph - N/A   Clear
3:48 PM 86.0 °F 46.4 °F 25% 29.93 in 10.0 mi NNW 9.2 mph - N/A Thunderstorm Clear
4:12 PM 84.2 °F 44.6 °F 25% 29.94 in 10.0 mi NW 15.0 mph 31.1 mph N/A Thunderstorm Clear
4:30 PM 84.2 °F 41.0 °F 22% 29.93 in 10.0 mi North 10.4 mph 21.9 mph N/A   Clear
4:54 PM 87.8 °F 37.4 °F 17% 29.93 in 10.0 mi WNW 8.1 mph - N/A   Clear
5:12 PM 87.8 °F 35.6 °F 16% 29.92 in 10.0 mi Calm Calm - N/A   Clear
5:30 PM 86.0 °F 35.6 °F 17% 29.92 in 10.0 mi Calm Calm - N/A   Clear
6:08 PM 84.2 °F 37.4 °F 19% 29.94 in 10.0 mi SSE 5.8 mph - N/A   Clear
6:32 PM 82.4 °F 41.0 °F 23% 29.95 in 10.0 mi SSE 6.9 mph - N/A   Clear
6:50 PM 82.4 °F 41.0 °F 23% 29.95 in 10.0 mi SSE 3.5 mph - N/A   Clear
7:12 PM 80.6 °F 41.0 °F 24% 29.97 in 10.0 mi Calm Calm - N/A   Clear
7:30 PM 80.6 °F 41.0 °F 24% 29.99 in 10.0 mi Calm Calm - N/A   Scattered Clouds
7:48 PM 78.8 °F 42.8 °F 28% 29.99 in 10.0 mi NE 6.9 mph - N/A Thunderstorm Mostly Cloudy
8:12 PM 75.2 °F 44.6 °F 34% 30.01 in 10.0 mi North 5.8 mph - N/A   Scattered Clouds
8:30 PM 73.4 °F 48.2 °F 41% 30.01 in 10.0 mi Calm Calm - N/A   Clear
8:48 PM 73.4 °F 48.2 °F 41% 30.03 in 10.0 mi Calm Calm - N/A   Clear
9:12 PM 71.6 °F 51.8 °F 50% 30.04 in 10.0 mi NW 3.5 mph - N/A   Clear
9:30 PM 71.6 °F 50.0 °F 46% 30.06 in 10.0 mi North 5.8 mph - N/A   Clear
9:48 PM 69.8 °F 46.4 °F 43% 30.06 in 10.0 mi NNW 4.6 mph - N/A   Clear
10:12 PM 68.0 °F 46.4 °F 46% 30.06 in 10.0 mi NW 6.9 mph - N/A   Clear
10:30 PM 69.8 °F 46.4 °F 43% 30.05 in 10.0 mi NNW 5.8 mph - N/A   Clear
10:48 PM 69.8 °F 46.4 °F 43% 30.06 in 10.0 mi Calm Calm - N/A   Clear
11:12 PM 68.0 °F 46.4 °F 46% 30.05 in 10.0 mi Calm Calm - N/A   Clear
11:30 PM 69.8 °F 46.4 °F 43% 30.04 in 10.0 mi WSW 4.6 mph - N/A   Clear
11:53 PM 69.8 °F 46.4 °F 43% 30.04 in 10.0 mi SSW 4.6 mph - N/A   Clear